Tracking 19153 objects as of 26-Apr-2018
HD Live streaming from Space Station
objects crossing your sky now

SCOUT A DEB

Track SCOUT A DEB now!
10-day predictions


NORAD ID: 31407
Int'l Code: 1966-041H
Perigee: 791.1 km
Apogee: 882.1 km
Inclination: 90.1 °
Period: 101.5 minutes
Semi major axis: 7207 km
RCS: 0.0062 m2 (small)
Launch date: May 19, 1966
Source: United States (US)
Launch site: AIR FORCE WESTERN TEST RANGE (AFWTR)

Note: This is SATELLITE DEBRIS
aabbcc
Your satellite tracking list
Your tracking list is empty




NASA's NSSDC Master Catalog

Two Line Element Set (TLE):
1 31407U 66041H   18113.48467466  .00000511  00000-0  23637-3 0  9992
2 31407  90.1392  18.1797 0063095 251.6496 107.7825 14.18792617776871
Source of the keplerian elements: AFSPC